Погода в Пихтовом

Россия / Сахалинская область     57°28′01″N   74°29′02″E
темп.,
°C
ветер,
м/с
пор.,
м/с
влажн.,
%
обл.,
%
осадки,
мм/ч
давл.,
гПа
погр.,
м
26 февраля, пт
пт2623:00−25ссз3695100 0.1 1017421
02:00−29ссз2598100 0.0 1019113
05:00−32сз239995 0.0 102173
08:00−33сз239847 0.0 102449
11:00−34сз239823 0.0 102634
14:00−34зсз23970 0.0 102883
17:00−27зсз238932 0.0 1029353
20:00−24з2491100 0.0 1030482
27 февраля, сб
сб2723:00−25юз2396100 0.0 103069
02:00−29зюз229790 0.0 103122
05:00−31юз129967 0.0 103219
08:00−31ююз229913 0.0 103219
11:00−32ююз22996 0.0 103319
14:00−32ю12980 0.0 103343
17:00−24ююз239022 0.0 1033316
20:00−21ю2492100 0.0 1032419
28 февраля, вс
вс2823:00−24ю2397100 0.0 103277
02:00−28ю239827 0.0 103375
05:00−29ююв269940 0.0 1033127
08:00−30юв379869 0.0 1032143
11:00−30юв3109774 0.0 1031192
14:00−28юв499598 0.0 1028245
17:00−22юв4109599 0.0 1026330
20:00−18вюв51093100 0.0 1023394
1 марта, пн
пн123:00−17вюв51192100 0.0 1021475
02:00−17вюв51294100 0.3 1019534
05:00−17вюв41095100 0.5 1017479
08:00−17в3995100 0.3 1015388
11:00−16в3895100 0.4 1013324
14:00−16всв3695100 0.1 1012254
17:00−12всв2493100 0.3 1011318
20:00−9всв2291100 0.2 1011356
2 марта, вт
вт223:00−10св1296100 0.5 1010100
02:00−12с1297100 0.3 101021
05:00−14сз129792 0.3 101020
08:00−16зсз229793 0.0 101031
11:00−18з229895 0.0 101020
14:00−19зюз129819 0.0 101038
17:00−12юз249243 0.0 1009347
20:00−10юз2591100 0.1 1008438